Location: Newark
(37.3333°N, 6.0167°W)
Time: 12:01:51
(UTC+00:00)

OTV 5 (USA 277) - Visible Passes

Search period start: 20 October 2019 00:00
Search period end: 30 October 2019 00:00
Orbit: 310 x 324 km, 54.5° (Epoch: 17 October)

Date Brightness Start Highest point End Pass type
(mag) Time Alt. Az. Time Alt. Az. Time Alt. Az.
20 Oct ? 05:05:03 25° N 05:05:44 29° NE 05:08:10 10° ESE visible
21 Oct ? 05:19:47 53° NW 05:20:19 85° SW 05:23:02 10° SE visible
22 Oct ? 05:34:41 23° SW 05:34:45 23° SW 05:37:01 10° S visible
26 Oct ? 19:40:05 10° WSW 19:40:11 11° WSW 19:40:11 11° WSW visible
27 Oct ? 18:21:01 10° S 18:23:10 21° SE 18:24:03 18° E visible
28 Oct ? 18:34:53 10° SW 18:37:35 75° SE 18:38:40 32° NE visible
29 Oct ? 18:49:40 10° WSW 18:52:10 32° NW 18:53:10 24° N visible
